Time,TemperatureF,DewpointF,PressureIn,WindDirection,WindDirectionDegrees,WindSpeedMPH,WindSpeedGustMPH,Humidity,HourlyPrecipIn,Conditions,Clouds,dailyrainin,SoftwareType,DateUTC
2013-03-08 00:01:00,27.0,24.0,30.43,ESE,117,0.0,3.0,89,0.00,,,0.00,,2013-03-08 06:01:00,
2013-03-08 00:11:00,27.0,24.0,30.43,ESE,117,0.0,3.0,89,0.00,,,0.00,,2013-03-08 06:11:00,
2013-03-08 00:22:00,27.0,24.0,30.43,ESE,117,0.0,3.0,89,0.00,,,0.00,,2013-03-08 06:22:00,
2013-03-08 00:32:00,27.0,24.0,30.43,ESE,109,0.0,4.0,89,0.00,,,0.00,,2013-03-08 06:32:00,
2013-03-08 00:42:00,27.0,24.0,30.43,ESE,109,0.0,4.0,89,0.00,,,0.00,,2013-03-08 06:42:00,
2013-03-08 00:51:00,27.0,24.0,30.43,ESE,109,0.0,4.0,89,0.00,,,0.00,,2013-03-08 06:51:00,
2013-03-08 01:01:00,27.0,24.0,30.44,ESE,106,1.0,3.0,90,0.00,,,0.00,,2013-03-08 07:01:00,
2013-03-08 01:11:00,27.0,24.0,30.44,ESE,106,1.0,3.0,90,0.00,,,0.00,,2013-03-08 07:11:00,
2013-03-08 01:22:00,27.0,24.0,30.45,ESE,111,1.0,3.0,90,0.00,,,0.00,,2013-03-08 07:22:00,
2013-03-08 01:32:00,27.0,24.0,30.45,ESE,104,0.0,2.0,90,0.00,,,0.00,,2013-03-08 07:32:00,
2013-03-08 01:42:00,27.0,24.0,30.45,ESE,104,0.0,2.0,90,0.00,,,0.00,,2013-03-08 07:42:00,
2013-03-08 01:51:00,27.0,24.0,30.45,ESE,117,1.0,4.0,90,0.00,,,0.00,,2013-03-08 07:51:00,
2013-03-08 02:01:00,27.0,24.0,30.45,ESE,111,1.0,4.0,90,0.00,,,0.00,,2013-03-08 08:01:00,
2013-03-08 02:11:00,27.0,24.0,30.45,ESE,111,1.0,4.0,90,0.00,,,0.00,,2013-03-08 08:11:00,
2013-03-08 02:22:00,27.0,24.0,30.45,ESE,121,1.0,5.0,90,0.00,,,0.00,,2013-03-08 08:22:00,
2013-03-08 02:32:00,26.0,23.0,30.44,ESE,121,2.0,5.0,90,0.00,,,0.00,,2013-03-08 08:32:00,
2013-03-08 02:42:00,26.0,23.0,30.44,ESE,121,2.0,5.0,90,0.00,,,0.00,,2013-03-08 08:42:00,
2013-03-08 02:52:00,26.0,23.0,30.45,SE,124,1.0,3.0,90,0.00,,,0.00,,2013-03-08 08:52:00,
2013-03-08 03:03:00,26.0,24.0,30.44,ESE,111,0.0,4.0,91,0.00,,,0.00,,2013-03-08 09:03:00,
2013-03-08 03:11:00,26.0,24.0,30.44,ESE,111,0.0,4.0,91,0.00,,,0.00,,2013-03-08 09:11:00,
2013-03-08 03:21:00,26.0,24.0,30.44,ESE,109,1.0,3.0,91,0.00,,,0.00,,2013-03-08 09:21:00,
2013-03-08 03:32:00,26.0,24.0,30.44,East,101,1.0,4.0,91,0.00,,,0.00,,2013-03-08 09:32:00,
2013-03-08 03:42:00,26.0,24.0,30.44,East,101,1.0,4.0,91,0.00,,,0.00,,2013-03-08 09:42:00,
2013-03-08 03:52:00,26.0,24.0,30.44,ESE,113,1.0,4.0,91,0.00,,,0.00,,2013-03-08 09:52:00,
2013-03-08 04:01:00,26.0,24.0,30.44,ESE,111,1.0,4.0,91,0.00,,,0.00,,2013-03-08 10:01:00,
2013-03-08 04:11:00,26.0,24.0,30.44,ESE,111,1.0,4.0,91,0.00,,,0.00,,2013-03-08 10:11:00,
2013-03-08 04:21:00,26.0,24.0,30.45,ESE,120,0.0,4.0,91,0.00,,,0.00,,2013-03-08 10:21:00,
2013-03-08 04:32:00,26.0,24.0,30.45,ESE,104,0.0,3.0,91,0.00,,,0.00,,2013-03-08 10:32:00,
2013-03-08 04:42:00,26.0,24.0,30.45,ESE,104,0.0,3.0,91,0.00,,,0.00,,2013-03-08 10:42:00,
2013-03-08 04:51:00,25.0,23.0,30.45,ESE,108,0.0,3.0,91,0.00,,,0.00,,2013-03-08 10:51:00,
2013-03-08 05:01:00,25.0,23.0,30.45,ESE,110,0.0,3.0,91,0.00,,,0.00,,2013-03-08 11:01:00,
2013-03-08 05:11:00,25.0,23.0,30.45,ESE,110,0.0,3.0,91,0.00,,,0.00,,2013-03-08 11:11:00,
2013-03-08 05:21:00,25.0,23.0,30.45,SE,130,1.0,5.0,92,0.00,,,0.00,,2013-03-08 11:21:00,
2013-03-08 05:32:00,25.0,23.0,30.46,ESE,123,2.0,4.0,92,0.00,,,0.00,,2013-03-08 11:32:00,
2013-03-08 05:42:00,25.0,23.0,30.46,ESE,123,2.0,4.0,92,0.00,,,0.00,,2013-03-08 11:42:00,
2013-03-08 05:52:00,25.0,23.0,30.46,ESE,123,2.0,4.0,92,0.00,,,0.00,,2013-03-08 11:52:00,
2013-03-08 06:02:00,25.0,23.0,30.46,ESE,123,2.0,4.0,92,0.00,,,0.00,,2013-03-08 12:02:00,
2013-03-08 06:22:00,25.0,23.0,30.46,ESE,117,1.0,6.0,91,0.00,,,0.00,,2013-03-08 12:22:00,
2013-03-08 06:32:00,25.0,23.0,30.46,ESE,118,2.0,7.0,92,0.00,,,0.00,,2013-03-08 12:32:00,
2013-03-08 06:43:00,25.0,23.0,30.46,ESE,118,2.0,7.0,92,0.00,,,0.00,,2013-03-08 12:43:00,
2013-03-08 06:52:00,25.0,23.0,30.47,SE,130,2.0,5.0,91,0.00,,,0.00,,2013-03-08 12:52:00,
2013-03-08 07:01:00,25.0,23.0,30.47,ESE,118,2.0,5.0,91,0.00,,,0.00,,2013-03-08 13:01:00,
2013-03-08 07:11:00,25.0,23.0,30.47,ESE,118,2.0,5.0,91,0.00,,,0.00,,2013-03-08 13:11:00,
2013-03-08 07:21:00,25.0,23.0,30.47,SE,136,2.0,5.0,92,0.00,,,0.00,,2013-03-08 13:21:00,
2013-03-08 07:32:00,26.0,24.0,30.47,SE,126,1.0,4.0,91,0.00,,,0.00,,2013-03-08 13:32:00,
2013-03-08 07:42:00,26.0,24.0,30.47,SE,126,1.0,4.0,91,0.00,,,0.00,,2013-03-08 13:42:00,
2013-03-08 07:52:00,27.0,24.0,30.47,ESE,118,2.0,7.0,90,0.00,,,0.00,,2013-03-08 13:52:00,
2013-03-08 08:02:00,28.0,25.0,30.47,SE,129,3.0,7.0,89,0.00,,,0.00,,2013-03-08 14:02:00,
2013-03-08 08:11:00,28.0,25.0,30.47,SE,129,3.0,7.0,89,0.00,,,0.00,,2013-03-08 14:11:00,
2013-03-08 08:22:00,29.0,26.0,30.47,SE,130,4.0,8.0,89,0.00,,,0.00,,2013-03-08 14:22:00,
2013-03-08 08:32:00,31.0,28.0,30.47,SE,126,2.0,8.0,88,0.00,,,0.00,,2013-03-08 14:32:00,
2013-03-08 08:42:00,31.0,28.0,30.47,SE,126,2.0,8.0,88,0.00,,,0.00,,2013-03-08 14:42:00,
2013-03-08 08:52:00,31.0,27.0,30.47,ESE,115,6.0,10.0,85,0.00,,,0.00,,2013-03-08 14:52:00,
2013-03-08 09:03:00,32.0,28.0,30.47,SSE,152,7.0,11.0,84,0.00,,,0.00,,2013-03-08 15:03:00,
2013-03-08 09:11:00,32.0,28.0,30.47,SSE,152,7.0,11.0,84,0.00,,,0.00,,2013-03-08 15:11:00,
2013-03-08 09:22:00,33.0,28.0,30.47,SE,128,7.0,11.0,82,0.00,,,0.00,,2013-03-08 15:22:00,
2013-03-08 09:32:00,34.0,29.0,30.47,SE,135,7.0,15.0,81,0.00,,,0.00,,2013-03-08 15:32:00,
2013-03-08 09:42:00,34.0,29.0,30.47,SE,135,7.0,15.0,81,0.00,,,0.00,,2013-03-08 15:42:00,
2013-03-08 09:53:00,35.0,29.0,30.48,South,175,7.0,14.0,79,0.00,,,0.00,,2013-03-08 15:53:00,
2013-03-08 10:01:00,35.0,29.0,30.48,SE,137,9.0,13.0,78,0.00,,,0.00,,2013-03-08 16:01:00,
2013-03-08 10:11:00,35.0,29.0,30.48,SE,137,9.0,13.0,78,0.00,,,0.00,,2013-03-08 16:11:00,
2013-03-08 10:22:00,36.0,29.0,30.48,SE,141,7.0,14.0,77,0.00,,,0.00,,2013-03-08 16:22:00,
2013-03-08 10:32:00,36.0,29.0,30.48,SE,133,9.0,15.0,76,0.00,,,0.00,,2013-03-08 16:32:00,
2013-03-08 10:42:00,36.0,29.0,30.48,SE,133,9.0,15.0,76,0.00,,,0.00,,2013-03-08 16:42:00,
2013-03-08 10:52:00,36.0,29.0,30.48,SE,146,8.0,14.0,76,0.00,,,0.00,,2013-03-08 16:52:00,
2013-03-08 11:02:00,36.0,29.0,30.48,SE,146,8.0,14.0,76,0.00,,,0.00,,2013-03-08 17:02:00,
2013-03-08 11:11:00,36.0,29.0,30.48,SE,146,8.0,14.0,76,0.00,,,0.00,,2013-03-08 17:11:00,
2013-03-08 11:21:00,37.0,30.0,30.48,SSE,154,8.0,15.0,77,0.00,,,0.00,,2013-03-08 17:21:00,
2013-03-08 11:32:00,37.0,30.0,30.48,SSE,150,7.0,15.0,77,0.00,,,0.00,,2013-03-08 17:32:00,
2013-03-08 11:42:00,37.0,30.0,30.48,SSE,150,7.0,15.0,77,0.00,,,0.00,,2013-03-08 17:42:00,
2013-03-08 11:52:00,38.0,32.0,30.47,SSE,148,7.0,14.0,78,0.00,,,0.00,,2013-03-08 17:52:00,
2013-03-08 12:02:00,38.0,31.0,30.46,SE,132,9.0,15.0,76,0.00,,,0.00,,2013-03-08 18:02:00,
2013-03-08 12:11:00,38.0,31.0,30.46,SE,132,9.0,15.0,76,0.00,,,0.00,,2013-03-08 18:11:00,
2013-03-08 12:21:00,38.0,31.0,30.45,SE,141,9.0,15.0,75,0.00,,,0.00,,2013-03-08 18:21:00,
2013-03-08 12:32:00,39.0,32.0,30.45,SSE,154,8.0,13.0,76,0.00,,,0.00,,2013-03-08 18:32:00,
2013-03-08 12:42:00,39.0,32.0,30.45,SSE,154,8.0,13.0,76,0.00,,,0.00,,2013-03-08 18:42:00,
2013-03-08 12:52:00,39.0,32.0,30.44,SE,130,10.0,17.0,77,0.00,,,0.00,,2013-03-08 18:52:00,
2013-03-08 13:01:00,39.0,33.0,30.42,SE,130,10.0,14.0,78,0.00,,,0.00,,2013-03-08 19:01:00,
2013-03-08 13:11:00,39.0,33.0,30.42,SE,130,10.0,14.0,78,0.00,,,0.00,,2013-03-08 19:11:00,
2013-03-08 13:22:00,40.0,33.0,30.42,South,180,8.0,16.0,77,0.00,,,0.00,,2013-03-08 19:22:00,
2013-03-08 13:32:00,40.0,34.0,30.40,SE,142,7.0,14.0,78,0.00,,,0.00,,2013-03-08 19:32:00,
2013-03-08 13:42:00,40.0,34.0,30.40,SE,142,7.0,14.0,78,0.00,,,0.00,,2013-03-08 19:42:00,
2013-03-08 13:52:00,41.0,34.0,30.39,SE,135,7.0,14.0,76,0.00,,,0.00,,2013-03-08 19:52:00,
2013-03-08 14:01:00,41.0,34.0,30.38,SE,126,7.0,15.0,77,0.00,,,0.00,,2013-03-08 20:01:00,
2013-03-08 14:11:00,41.0,34.0,30.38,SE,126,7.0,15.0,77,0.00,,,0.00,,2013-03-08 20:11:00,
2013-03-08 14:21:00,41.0,34.0,30.38,SE,130,7.0,12.0,75,0.00,,,0.00,,2013-03-08 20:21:00,
2013-03-08 14:32:00,42.0,34.0,30.38,SSE,157,7.0,16.0,74,0.00,,,0.00,,2013-03-08 20:32:00,
2013-03-08 14:42:00,42.0,34.0,30.38,SSE,157,7.0,16.0,74,0.00,,,0.00,,2013-03-08 20:42:00,
2013-03-08 14:52:00,42.0,35.0,30.37,SE,134,8.0,14.0,75,0.00,,,0.00,,2013-03-08 20:52:00,
2013-03-08 15:02:00,42.0,35.0,30.37,SE,126,8.0,14.0,76,0.00,,,0.00,,2013-03-08 21:02:00,
2013-03-08 15:11:00,42.0,35.0,30.37,SE,126,8.0,14.0,76,0.00,,,0.00,,2013-03-08 21:11:00,
2013-03-08 15:21:00,42.0,35.0,30.37,SE,137,8.0,14.0,76,0.00,,,0.00,,2013-03-08 21:21:00,
2013-03-08 15:32:00,43.0,36.0,30.36,ESE,121,7.0,16.0,77,0.00,,,0.00,,2013-03-08 21:32:00,
2013-03-08 15:42:00,43.0,36.0,30.36,ESE,121,7.0,16.0,77,0.00,,,0.00,,2013-03-08 21:42:00,
2013-03-08 15:52:00,43.0,36.0,30.36,ESE,105,8.0,14.0,75,0.00,,,0.00,,2013-03-08 21:52:00,
2013-03-08 16:01:00,43.0,36.0,30.35,ESE,123,7.0,14.0,75,0.00,,,0.00,,2013-03-08 22:01:00,
2013-03-08 16:11:00,43.0,36.0,30.35,ESE,123,7.0,14.0,75,0.00,,,0.00,,2013-03-08 22:11:00,
2013-03-08 16:22:00,43.0,35.0,30.35,ESE,119,6.0,13.0,73,0.00,,,0.00,,2013-03-08 22:22:00,
2013-03-08 16:32:00,43.0,35.0,30.35,SSE,157,6.0,14.0,74,0.00,,,0.00,,2013-03-08 22:32:00,
2013-03-08 16:42:00,43.0,35.0,30.35,SSE,157,6.0,14.0,74,0.00,,,0.00,,2013-03-08 22:42:00,
2013-03-08 16:52:00,43.0,36.0,30.36,ESE,119,6.0,13.0,75,0.00,,,0.00,,2013-03-08 22:52:00,
2013-03-08 17:01:00,43.0,36.0,30.36,SE,128,6.0,10.0,75,0.00,,,0.00,,2013-03-08 23:01:00,
2013-03-08 17:12:00,43.0,36.0,30.36,SE,128,6.0,10.0,75,0.00,,,0.00,,2013-03-08 23:12:00,
2013-03-08 17:21:00,42.0,35.0,30.36,ESE,122,3.0,8.0,77,0.00,,,0.00,,2013-03-08 23:21:00,
2013-03-08 17:32:00,42.0,36.0,30.36,SE,128,4.0,8.0,79,0.00,,,0.00,,2013-03-08 23:32:00,
2013-03-08 17:42:00,42.0,36.0,30.36,SE,128,4.0,8.0,79,0.00,,,0.00,,2013-03-08 23:42:00,
2013-03-08 17:52:00,41.0,35.0,30.36,SE,140,3.0,8.0,79,0.00,,,0.00,,2013-03-08 23:52:00,
2013-03-08 18:02:00,40.0,34.0,30.37,SE,132,3.0,7.0,80,0.00,,,0.00,,2013-03-09 00:02:00,
2013-03-08 18:11:00,40.0,34.0,30.37,SE,132,3.0,7.0,80,0.00,,,0.00,,2013-03-09 00:11:00,
2013-03-08 18:22:00,39.0,34.0,30.36,SE,127,3.0,8.0,81,0.00,,,0.00,,2013-03-09 00:22:00,
2013-03-08 18:32:00,38.0,34.0,30.37,SSE,153,2.0,6.0,84,0.00,,,0.00,,2013-03-09 00:32:00,
2013-03-08 18:42:00,38.0,34.0,30.37,SSE,153,2.0,6.0,84,0.00,,,0.00,,2013-03-09 00:42:00,
2013-03-08 18:52:00,37.0,33.0,30.37,ESE,120,2.0,5.0,85,0.00,,,0.00,,2013-03-09 00:52:00,
2013-03-08 19:01:00,37.0,33.0,30.36,East,98,3.0,7.0,86,0.00,,,0.00,,2013-03-09 01:01:00,
2013-03-08 19:12:00,37.0,33.0,30.36,ESE,115,3.0,7.0,86,0.00,,,0.00,,2013-03-09 01:12:00,
2013-03-08 19:22:00,37.0,33.0,30.36,ESE,115,3.0,7.0,86,0.00,,,0.00,,2013-03-09 01:22:00,
2013-03-08 19:32:00,37.0,33.0,30.36,ESE,105,3.0,7.0,86,0.00,,,0.00,,2013-03-09 01:32:00,
2013-03-08 19:42:00,37.0,33.0,30.36,ESE,105,3.0,7.0,86,0.00,,,0.00,,2013-03-09 01:42:00,
2013-03-08 19:51:00,37.0,33.0,30.35,ESE,121,3.0,7.0,85,0.00,,,0.00,,2013-03-09 01:51:00,
2013-03-08 20:01:00,37.0,33.0,30.35,East,90,3.0,9.0,84,0.00,,,0.00,,2013-03-09 02:01:00,
2013-03-08 20:11:00,37.0,33.0,30.35,East,90,3.0,9.0,84,0.00,,,0.00,,2013-03-09 02:11:00,
2013-03-08 20:21:00,36.0,32.0,30.34,ESE,110,4.0,8.0,86,0.00,,,0.00,,2013-03-09 02:21:00,
2013-03-08 20:31:00,36.0,33.0,30.34,ESE,119,3.0,8.0,87,0.00,,,0.00,,2013-03-09 02:31:00,
2013-03-08 20:41:00,36.0,33.0,30.34,SE,142,3.0,9.0,87,0.00,,,0.00,,2013-03-09 02:41:00,
2013-03-08 20:51:00,36.0,33.0,30.34,SE,142,3.0,9.0,87,0.00,,,0.00,,2013-03-09 02:51:00,
2013-03-08 21:01:00,36.0,33.0,30.34,ESE,121,3.0,9.0,87,0.00,,,0.00,,2013-03-09 03:01:00,
2013-03-08 21:11:00,36.0,33.0,30.34,ESE,121,3.0,9.0,87,0.00,,,0.00,,2013-03-09 03:11:00,
2013-03-08 21:21:00,36.0,33.0,30.33,SE,136,4.0,8.0,87,0.00,,,0.00,,2013-03-09 03:21:00,
2013-03-08 21:31:00,36.0,32.0,30.33,ESE,119,5.0,10.0,86,0.00,,,0.00,,2013-03-09 03:31:00,
2013-03-08 21:41:00,36.0,32.0,30.33,ESE,119,5.0,10.0,86,0.00,,,0.00,,2013-03-09 03:41:00,
2013-03-08 21:52:00,36.0,32.0,30.33,SE,138,4.0,10.0,85,0.00,,,0.00,,2013-03-09 03:52:00,
2013-03-08 22:01:00,36.0,32.0,30.32,ESE,123,5.0,12.0,85,0.00,,,0.00,,2013-03-09 04:01:00,
2013-03-08 22:11:00,36.0,32.0,30.32,ESE,123,5.0,12.0,85,0.00,,,0.00,,2013-03-09 04:11:00,
2013-03-08 22:22:00,36.0,32.0,30.31,East,98,5.0,10.0,85,0.00,,,0.00,,2013-03-09 04:22:00,
2013-03-08 22:32:00,36.0,32.0,30.31,SE,130,7.0,12.0,84,0.00,,,0.00,,2013-03-09 04:32:00,
2013-03-08 22:41:00,36.0,32.0,30.31,SE,130,7.0,12.0,84,0.00,,,0.00,,2013-03-09 04:41:00,
2013-03-08 22:51:00,36.0,32.0,30.31,SSE,152,6.0,11.0,84,0.00,,,0.00,,2013-03-09 04:51:00,
2013-03-08 23:02:00,36.0,32.0,30.31,ESE,122,6.0,11.0,84,0.00,,,0.00,,2013-03-09 05:02:00,
2013-03-08 23:12:00,36.0,32.0,30.31,ESE,122,6.0,11.0,84,0.00,,,0.00,,2013-03-09 05:12:00,
2013-03-08 23:22:00,35.0,31.0,30.31,SE,134,5.0,10.0,85,0.00,,,0.00,,2013-03-09 05:22:00,
2013-03-08 23:32:00,36.0,32.0,30.31,SE,127,6.0,10.0,85,0.00,,,0.00,,2013-03-09 05:32:00,
2013-03-08 23:42:00,36.0,32.0,30.31,SE,127,6.0,10.0,85,0.00,,,0.00,,2013-03-09 05:42:00,
2013-03-08 23:52:00,35.0,31.0,30.30,ESE,113,6.0,11.0,85,0.00,,,0.00,,2013-03-09 05:52:00,